This is the latest recevied weather packets stored in our database for station/object WD4HMR. If no packets are shown the sender has not sent any weather packets the latest 10 day(s).
| Time | Temp. | Humidity | Pressure | Rain* | Wind** | Luminosity | Snow |
|---|---|---|---|---|---|---|---|
| 1777718704 | 11.67° C | 70% | 1015 hPa | 0 mm | - | 0 W/m² | - |
| 1777718103 | 11.67° C | 70% | 1015.1 hPa | 0 mm | - | 0 W/m² | - |
| 1777717204 | 11.67° C | 69% | 1015.3 hPa | 0 mm | - | 0 W/m² | - |
| 1777716904 | 11.67° C | 70% | 1015.5 hPa | 0 mm | - | 0 W/m² | - |
| 1777715703 | 12.22° C | 68% | 1015.1 hPa | 0 mm | - | 0 W/m² | - |
| 1777715404 | 12.22° C | 68% | 1015.2 hPa | 0 mm | - | 0 W/m² | - |
| 1777710903 | 13.33° C | 64% | 1015.1 hPa | 0 mm | - | 0 W/m² | - |
| 1777710604 | 13.33° C | 64% | 1015.1 hPa | 0 mm | - | 0 W/m² | - |
| 1777709404 | 12.78° C | 73% | 1014.7 hPa | 0 mm | - | 0 W/m² | - |
| 1777708803 | 12.78° C | 75% | 1014.8 hPa | 0 mm | - | 0 W/m² | - |
| 1777704904 | 13.33° C | 81% | 1015.2 hPa | 0 mm | - | 0 W/m² | - |
| 1777704604 | 13.33° C | 82% | 1015.2 hPa | 0 mm | - | 0 W/m² | - |
| 1777704004 | 13.89° C | 82% | 1015.3 hPa | 0 mm | - | 0 W/m² | - |
| 1777703704 | 13.89° C | 81% | 1015.3 hPa | 0 mm | - | 0 W/m² | - |
| 1777703403 | 13.89° C | 81% | 1015.3 hPa | 0 mm | - | 0 W/m² | - |
| 1777702804 | 13.89° C | 81% | 1015.3 hPa | 0 mm | - | 0 W/m² | - |
| 1777702204 | 13.89° C | 80% | 1015.2 hPa | 0 mm | - | 0 W/m² | - |
| 1777701605 | 13.89° C | 80% | 1015.2 hPa | 0 mm | - | 0 W/m² | - |
| 1777700403 | 14.44° C | 79% | 1015.1 hPa | 0 mm | - | 0 W/m² | - |
| 1777699504 | 14.44° C | 78% | 1015.2 hPa | 0 mm | - | 0 W/m² | - |
| 1777698604 | 14.44° C | 78% | 1015.1 hPa | 0 mm | - | 0 W/m² | - |
| 1777698304 | 14.44° C | 79% | 1015 hPa | 0 mm | - | 0 W/m² | - |
| 1777698004 | 14.44° C | 79% | 1015.1 hPa | 0 mm | - | 0 W/m² | - |
| 1777697704 | 14.44° C | 80% | 1015.1 hPa | 0 mm | - | 0 W/m² | - |
| 1777696503 | 14.44° C | 78% | 1014.8 hPa | 0 mm | - | 0 W/m² | - |
* Rain latest hour (hover to see other rain measurements)
** Current wind speed in m/s (hover to see current wind gust speed)